Time,TemperatureF,DewpointF,PressureIn,WindDirection,WindDirectionDegrees,WindSpeedMPH,WindSpeedGustMPH,Humidity,HourlyPrecipIn,Conditions,Clouds,dailyrainin,SoftwareType,DateUTC
2013-12-09 00:01:00,21.2,16.3,29.97,SE,135,2.2,2.2,81,0.00,,-RA,0.00,VWS V14.01,2013-12-09 05:01:00,
2013-12-09 00:06:00,21.2,16.3,29.97,ENE,68,4.5,4.5,81,0.00,,-RA,0.00,VWS V14.01,2013-12-09 05:06:00,
2013-12-09 00:11:00,21.2,16.3,29.97,East,90,0.0,0.0,81,0.00,,-RA,0.00,VWS V14.01,2013-12-09 05:11:00,
2013-12-09 00:16:00,21.2,16.3,29.94,ESE,112,3.1,3.1,81,0.00,,-RA,0.00,VWS V14.01,2013-12-09 05:16:00,
2013-12-09 00:21:00,21.2,16.3,29.94,ESE,112,0.9,0.9,81,0.00,,-RA,0.00,VWS V14.01,2013-12-09 05:21:00,
2013-12-09 00:26:00,21.4,16.5,29.94,SSE,158,2.7,2.7,81,0.00,,-RA,0.00,VWS V14.01,2013-12-09 05:26:00,
2013-12-09 00:31:00,21.4,16.5,29.94,SE,135,0.0,0.0,81,0.00,,-RA,0.00,VWS V14.01,2013-12-09 05:31:00,
2013-12-09 00:36:00,21.4,16.5,29.94,NE,45,1.3,1.3,81,0.00,,-RA,0.00,VWS V14.01,2013-12-09 05:36:00,
2013-12-09 00:41:00,21.4,16.2,29.94,ESE,112,0.0,0.0,80,0.00,,-RA,0.00,VWS V14.01,2013-12-09 05:41:00,
2013-12-09 00:46:00,21.6,16.4,29.94,ENE,68,0.0,0.0,80,0.00,,-RA,0.00,VWS V14.01,2013-12-09 05:46:00,
2013-12-09 00:51:00,21.6,16.4,29.94,ENE,68,0.0,0.0,80,0.00,,-RA,0.00,VWS V14.01,2013-12-09 05:51:00,
2013-12-09 00:56:00,21.6,16.4,29.94,East,90,0.0,0.0,80,0.00,,-RA,0.00,VWS V14.01,2013-12-09 05:56:00,
2013-12-09 01:01:00,21.7,16.8,29.94,ENE,68,0.0,0.0,81,0.00,,-RA,0.00,VWS V14.01,2013-12-09 06:01:00,
2013-12-09 01:06:00,21.7,16.5,29.94,ESE,112,0.0,0.0,80,0.00,,-RA,0.00,VWS V14.01,2013-12-09 06:06:00,
2013-12-09 01:11:00,21.7,16.5,29.94,ESE,112,0.0,0.0,80,0.00,,-RA,0.00,VWS V14.01,2013-12-09 06:11:00,
2013-12-09 01:16:00,21.7,16.5,29.91,ENE,68,4.0,4.0,80,0.00,,-RA,0.00,VWS V14.01,2013-12-09 06:16:00,
2013-12-09 01:21:00,21.7,16.5,29.91,SSW,202,2.2,2.2,80,0.00,,-RA,0.00,VWS V14.01,2013-12-09 06:21:00,
2013-12-09 01:26:00,21.7,16.5,29.91,ENE,68,2.0,2.0,80,0.00,,-RA,0.00,VWS V14.01,2013-12-09 06:26:00,
2013-12-09 01:31:00,21.7,16.5,29.91,ESE,112,0.0,0.0,80,0.00,,-RA,0.00,VWS V14.01,2013-12-09 06:31:00,
2013-12-09 01:36:00,21.7,16.5,29.91,NNE,22,0.0,0.0,80,0.00,,-RA,0.00,VWS V14.01,2013-12-09 06:36:00,
2013-12-09 01:41:00,21.9,16.7,29.91,ESE,112,0.0,0.0,80,0.00,,-RA,0.00,VWS V14.01,2013-12-09 06:41:00,
2013-12-09 01:46:00,21.9,16.7,29.91,ESE,112,0.0,0.0,80,0.00,,-RA,0.00,VWS V14.01,2013-12-09 06:46:00,
2013-12-09 01:51:00,21.9,16.7,29.91,ESE,112,0.0,0.0,80,0.00,,-RA,0.00,VWS V14.01,2013-12-09 06:51:00,
2013-12-09 01:56:00,21.9,16.7,29.91,South,180,0.0,0.0,80,0.00,,-RA,0.00,VWS V14.01,2013-12-09 06:56:00,
2013-12-09 02:01:00,22.1,16.9,29.88,South,180,0.0,0.0,80,0.00,,-RA,0.00,VWS V14.01,2013-12-09 07:01:00,
2013-12-09 02:06:00,22.1,16.9,29.88,ESE,112,0.0,0.0,80,0.00,,-RA,0.00,VWS V14.01,2013-12-09 07:06:00,
2013-12-09 02:11:00,22.1,16.9,29.88,ESE,112,0.0,0.0,80,0.00,,-RA,0.00,VWS V14.01,2013-12-09 07:11:00,
2013-12-09 02:16:00,22.1,16.9,29.88,WNW,292,0.0,0.0,80,0.00,,-RA,0.00,VWS V14.01,2013-12-09 07:16:00,
2013-12-09 02:21:00,22.3,17.1,29.88,East,90,0.0,0.0,80,0.00,,-RA,0.00,VWS V14.01,2013-12-09 07:21:00,
2013-12-09 02:26:00,22.3,17.1,29.88,NW,315,0.0,0.0,80,0.00,,-RA,0.00,VWS V14.01,2013-12-09 07:26:00,
2013-12-09 02:31:00,22.3,17.4,29.91,SSE,158,0.0,0.0,81,0.00,,-RA,0.00,VWS V14.01,2013-12-09 07:31:00,
2013-12-09 02:36:00,22.5,17.5,29.91,SE,135,0.0,0.0,81,0.00,,-RA,0.00,VWS V14.01,2013-12-09 07:36:00,
2013-12-09 02:41:00,22.5,17.5,29.91,WSW,248,0.0,0.0,81,0.00,,-RA,0.00,VWS V14.01,2013-12-09 07:41:00,
2013-12-09 02:46:00,22.6,17.7,29.91,South,180,0.0,0.0,81,0.00,,-RA,0.00,VWS V14.01,2013-12-09 07:46:00,
2013-12-09 02:51:00,22.6,17.7,29.91,WSW,248,0.0,0.0,81,0.00,,-RA,0.00,VWS V14.01,2013-12-09 07:51:00,
2013-12-09 02:56:00,22.6,17.7,29.91,ESE,112,0.0,0.0,81,0.00,,-RA,0.00,VWS V14.01,2013-12-09 07:56:00,
2013-12-09 03:01:00,22.8,17.9,29.88,SSE,158,0.0,0.0,81,0.00,,-RA,0.00,VWS V14.01,2013-12-09 08:01:00,
2013-12-09 03:06:00,22.8,17.9,29.88,SSE,158,0.0,0.0,81,0.00,,-RA,0.00,VWS V14.01,2013-12-09 08:06:00,
2013-12-09 03:11:00,22.8,17.9,29.88,SSE,158,0.0,0.0,81,0.00,,-RA,0.00,VWS V14.01,2013-12-09 08:11:00,
2013-12-09 03:16:00,22.8,17.9,29.88,SSE,158,0.0,0.0,81,0.00,,-RA,0.00,VWS V14.01,2013-12-09 08:16:00,
2013-12-09 03:21:00,22.8,17.9,29.88,SE,135,0.0,0.0,81,0.00,,-RA,0.00,VWS V14.01,2013-12-09 08:21:00,
2013-12-09 03:26:00,23.0,18.0,29.88,SSE,158,0.0,0.0,81,0.00,,-RA,0.00,VWS V14.01,2013-12-09 08:26:00,
2013-12-09 03:31:00,23.2,18.2,29.88,SE,135,0.0,0.0,81,0.00,,-RA,0.00,VWS V14.01,2013-12-09 08:31:00,
2013-12-09 03:36:00,23.2,18.2,29.88,SSE,158,0.0,0.0,81,0.00,,-RA,0.00,VWS V14.01,2013-12-09 08:36:00,